Powrót do katalogu

Lapan A3

LAPAN A3

AktywnyKrótkofalarstwoSSO
NORAD 41603·PAYLOAD·🇮🇩 Indonesia

Wystrzelony Jun 22, 2016 z Satish Dhawan Space Centre

Loading…

Następne Przeloty (najbliższe 24 godziny)

TLE

ŚwieżeSource: Space-Track

Epoka: Sep 14, 2026, 14:17 UTC

1 41603U 16040E   26257.59556161  .00002936  00000-0  92570-4 0  9992
2 41603  97.1566 250.8699 0011823  60.3065 299.9354 15.33594582568515

Śledź Lapan A3 w czasie rzeczywistym z AllMySat

Download on the App Store